Flag for Chile Weather past 2 weeks in Santiago, Chile

Now
50 °F

Fog.


Feels Like: 48 °F
Forecast: 46 / 60 °F
Wind: 5 mph from Northeast

Location: Pudahuel

Current Time: Jul 28, 2015 at 5:25:54 AM

Latest Report: Jul 28, 2015 at 5:00 AM


Visibility: 3 mi

Pressure: 30.04 "Hg (28.02 "Hg at 576m altitude)

Humidity: 94%

Dew point: 48 °F

Location of SantiagoLocation

Historic Weather in Santiago — Graph

°F

Santiago temperature yesterday

Maximum temperature yesterday: 61 °F (at 5:00 PM)
Minimum temperature yesterday: 36 °F (at 9:00 AM)
Average temperature yesterday: 48 °F

Past Weeks' High & Low Weather Summary

 TemperatureHumidityPressure
High72 °F (Jul 24, 4:00 PM)100% (Jul 14, 10:00 AM)30.33 "Hg (Jul 14, 10:00 AM)
Low28 °F (Jul 21, 8:00 AM)22% (Jul 16, 5:00 PM)29.86 "Hg (Jul 26, 3:00 PM)
Average47 °F71%30.12 "Hg
* Reported Jul 13 4:00 AM — Jul 28 4:00 AM, Santiago, Weather by CustomWeather, © 2015

Note: Actual official high and low records may vary slightly from our data, if they occured in-between our weather recording intervals... More about our weather records

Advertising

Santiago weather history for previous 24 hours

 ConditionsComfort  
Time TempWeatherWind HumidityBarometerVisibility
4:00 AM
Tue, Jul 28
50 °FFog.2 mph94%30.04 "Hg3 mi
3:00 AM50 °FFog.3 mph94%30.04 "Hg3 mi
2:00 AM48 °FFog.2 mph100%30.04 "Hg2 mi
1:00 AM48 °FCool.3 mph100%30.01 "Hg1 mi
12:00 AM50 °FFog.5 mph94%30.01 "Hg2 mi
11:00 PM
Mon, Jul 27
52 °FPassing clouds.5 mph94%30.04 "HgN/A
10:00 PM52 °FPassing clouds.8 mph94%30.04 "HgN/A
9:00 PM54 °FPassing clouds.8 mph88%30.04 "HgN/A
8:00 PM54 °FPassing clouds.9 mph88%30.01 "HgN/A
7:00 PM57 °FPartly cloudy.9 mph77%30.01 "HgN/A
6:00 PM61 °FPartly sunny.9 mph59%30.01 "HgN/A
5:00 PM61 °FPartly sunny.6 mph55%30.01 "HgN/A
4:00 PM59 °FPartly sunny.6 mph55%29.98 "Hg5 mi
3:00 PM57 °FMostly cloudy.1 mph59%29.98 "Hg5 mi
2:00 PM57 °FClear.No wind59%30.01 "Hg5 mi
1:00 PM54 °FHaze.1 mph72%30.04 "Hg3 mi
12:00 PM52 °FHaze.2 mph77%30.04 "Hg3 mi
11:00 AM46 °FHaze.5 mph87%30.04 "Hg3 mi
10:00 AM37 °FFog.5 mph100%30.01 "Hg2 mi
9:00 AM36 °FChilly.6 mph100%30.01 "Hg1 mi
8:00 AM41 °FFog.7 mph93%30.01 "Hg2 mi
7:00 AM39 °FFog.5 mph93%30.01 "Hg0 mi
6:00 AM39 °FChilly.3 mph100%30.01 "Hg1 mi
5:00 AM39 °FChilly.No wind93%30.01 "Hg2 mi
Weather by CustomWeather, © 2015

See weather overviewHow to use our weather pages